Track STARLINK-1421 now! 10-day predictions STARLINK-1421 is classified as:
1 45709U 20035BE 21105.52698583 .00000441 00000-0 48489-4 0 9996 2 45709 53.0568 148.4652 0001185 138.9114 221.1965 15.06393249 49074